Location: Berlin
(52.5170°N, 13.3889°E)
Time: 22:45:09
(UTC+02:00)

LES 1 - Pass Details

Date: 18 June 2025
Orbit: 2779 x 2808 km, 32.1° (Epoch: 12 July)

Event Time Altitude Azimuth Distance (km) Brightness Sun altitude
Rises 01:19:37 0° 244° (WSW) 6,570 12.0 -14.0°
Reaches altitude 10° 01:24:17 10° 236° (WSW) 5,552 11.5 -14.0°
Maximum altitude 01:37:46 35° 178° (S) 3,871 10.5 -13.8°
Drops below altitude 10° 01:51:18 10° 120° (ESE) 5,568 11.7 -13.5°
Sets 01:56:00 0° 112° (ESE) 6,592 12.2 -13.3°
